Location: Newark
(53.4716°N, 2.0338°W)
Time: 08:39:03
(UTC+00:00)

N. Korean satellite - Visible Passes

Search period start: 19 September 2019 00:00
Search period end: 29 September 2019 00:00
Orbit: 455 x 509 km, 97.2° (Epoch: 18 September)

Date Brightness Start Highest point End Pass type
(mag) Time Alt. Az. Time Alt. Az. Time Alt. Az.
20 Sep 10.2 04:59:50 10° ENE 05:01:04 11° E 05:02:17 10° ESE visible
23 Sep 9.8 05:16:34 10° NE 05:18:57 17° E 05:21:19 10° SE visible
27 Sep 9.9 05:09:17 10° NE 05:11:20 15° E 05:13:22 10° SE visible
28 Sep 10.7 18:34:20 10° W 18:35:08 11° W 18:35:57 10° WNW visible
